Gage, OK

6:33 PM CDT on July 24, 2017 (GMT -0500)
Gage

Weather History for KGAG - October, 2013

Change the Weather History Date:

Sunday, October 6, 2013

  Actual Average Record
Temperature  
Mean Temperature 55 °F -  
Max Temperature 75 °F 76 °F 95 °F (2016)
Min Temperature 37 °F 47 °F 28 °F (1952)
Degree Days  
Heating Degree Days 10    
Growing Degree Days 5 (Base 50)    
Moisture  
Dew Point 30 °F    
Average Humidity 39    
Maximum Humidity 69    
Minimum Humidity 20    
Precipitation  
Precipitation 0.00 in - - ()
Sea Level Pressure  
Sea Level Pressure 30.12 in    
Wind  
Wind Speed 11 mph (NW)    
Max Wind Speed 23 mph    
Max Gust Speed 32 mph    
Visibility 10 miles    
Events      
Averages and records for this station are not official NWS values.
T = Trace of Precipitation, MM = Missing Value Source: NWS Daily Summary

Daily Weather History Graph

Daily Weather History Graph

Search for Another Location

Airport or City:

Trip Planner

Search our weather history database for the weather conditions in past years. The results will help you decide how hot, cold, wet, or windy it might be!

Date:

Astronomy

Oct. 06, 2013 Rise Set
Actual Time 7:38 AM CDT 7:15 PM CDT
Civil Twilight 7:12 AM CDT 7:40 PM CDT
Nautical Twilight 6:43 AM CDT 8:10 PM CDT
Astronomical Twilight 6:13 AM CDT 8:40 PM CDT
Moon 9:20 AM CDT (10/6) 8:20 PM CDT (10/6)
Length of Visible Light 12h 27m
Length of Day
11h 36m
Waxing Crescent, 3% of the Moon is Illuminated
Oct 6
Waxing Crescent
Oct 11
First Quarter
Oct 18
Full
Oct 26
Last Quarter
Nov 3
New

Hourly Weather History & Observations

Time (CDT) Temp. Windchill Dew Point Humidity Pressure Visibility Wind Dir Wind Speed Gust Speed Precip Events Conditions
12:53 AM 46.9 °F - 25.0 °F 42% 30.12 in 10.0 mi NNW 8.1 mph - N/A   Clear
1:53 AM 37.9 °F 34.4 °F 27.0 °F 65% 30.15 in 10.0 mi WNW 4.6 mph - N/A   Clear
2:53 AM 48.0 °F - 19.9 °F 33% 30.13 in 10.0 mi NNW 15.0 mph - N/A   Clear
3:53 AM 45.0 °F 40.1 °F 23.0 °F 42% 30.11 in 10.0 mi WNW 9.2 mph - N/A   Clear
4:53 AM 46.9 °F - 21.9 °F 37% 30.12 in 10.0 mi NW 11.5 mph - N/A   Clear
5:53 AM 45.0 °F 40.6 °F 24.1 °F 44% 30.14 in 10.0 mi NW 8.1 mph - N/A   Clear
6:53 AM 42.1 °F 37.1 °F 25.0 °F 51% 30.16 in 10.0 mi WNW 8.1 mph - N/A   Clear
7:53 AM 41.0 °F 34.7 °F 26.1 °F 55% 30.18 in 10.0 mi West 10.4 mph - N/A   Clear
8:53 AM 48.0 °F - 26.1 °F 42% 30.17 in 10.0 mi WNW 6.9 mph - N/A   Clear
9:53 AM 55.9 °F - 27.0 °F 33% 30.18 in 10.0 mi NW 16.1 mph 20.7 mph N/A   Clear
10:53 AM 59.0 °F - 25.0 °F 27% 30.18 in 10.0 mi NNW 19.6 mph 25.3 mph N/A   Clear
11:53 AM 64.9 °F - 30.0 °F 27% 30.16 in 10.0 mi NNW 16.1 mph 24.2 mph N/A   Clear
12:53 PM 68.0 °F - 28.9 °F 23% 30.13 in 10.0 mi NNW 23.0 mph 32.2 mph N/A   Clear
1:53 PM 70.0 °F - 28.0 °F 21% 30.12 in 10.0 mi NW 18.4 mph 27.6 mph N/A   Clear
2:53 PM 72.0 °F - 28.9 °F 20% 30.08 in 10.0 mi NW 20.7 mph 31.1 mph N/A   Clear
3:53 PM 73.0 °F - 30.9 °F 21% 30.07 in 10.0 mi NNW 18.4 mph 24.2 mph N/A   Clear
4:53 PM 73.9 °F - 32.0 °F 21% 30.05 in 10.0 mi NW 15.0 mph 25.3 mph N/A   Clear
5:53 PM 73.9 °F - 34.0 °F 23% 30.05 in 10.0 mi North 11.5 mph - N/A   Clear
6:53 PM 69.1 °F - 35.1 °F 29% 30.07 in 10.0 mi North 6.9 mph - N/A   Clear
7:53 PM 62.1 °F - 37.0 °F 39% 30.09 in 10.0 mi NNW 3.5 mph - N/A   Clear
8:53 PM 57.0 °F - 37.9 °F 49% 30.09 in 10.0 mi NNW 3.5 mph - N/A   Clear
9:53 PM 53.1 °F - 39.0 °F 59% 30.11 in 10.0 mi West 3.5 mph - N/A   Clear
10:53 PM 48.9 °F - 39.0 °F 69% 30.12 in 10.0 mi SW 5.8 mph - N/A   Clear
11:53 PM 48.9 °F - 39.0 °F 69% 30.12 in 10.0 mi SW 4.6 mph - N/A   Clear